sat.trackr.live / text

‹ back to catalog

STARLINK-31898

NORAD 59905 · 2024-100W

PAYLOAD ACTIVE UNKNOWN

§ Identity

Operator
Country
US
Launch date
2024-05-28
Launch site
AFETR
Launch vehicle
Mass (kg)
RCS (m²)

Purposes: comms

External: N2YO · Heavens-Above · Gunter

§ Orbital elements

Epoch: 2026-09-21T21:28:34.533696Z

Period
94.27 min
Inclination
43.0026°
Eccentricity
0.0000981
Mean motion
15.27574054 rev/d
Perigee alt
482.4 km
Apogee alt
483.7 km
Semi-major
6,861.2 km
B*
2.0082e-5
RAAN
93.8986°
Arg perigee
276.7409°
Mean anomaly
83.3331°
Rev number
13,119

§ Raw data

STARLINK-318981 59905U 24100W   26264.89484414  .00000291  00000+0  20082-4 0  99942 59905  43.0026  93.8986 0000981 276.7409  83.3331 15.27574054131197

JSON: /api/v1/satellites/59905 · /tle

For live sub-satellite position, see the globe view (requires WebGL).

§ Visibility from observer

Set your observer location to see the next 7 days of passes ≥ 10°. The values pass through the URL so the page stays shareable.

No JS? Fill the form by hand. The geolocation button needs JavaScript.